Location: Elk Horn Observatory
(36.6768°N, 80.8309°W)
Time: 09:43:33
(UTC-04:00)

Envisat - Pass Details

Date: 24 January 2019
Orbit: 764 x 766 km, 98.1° (Epoch: 14 October)

Event Time Altitude Azimuth Distance (km) Brightness Sun altitude
Rises 18:50:24 0° 155° (SSE) 3,217 6.1 -14.2°
Reaches altitude 10° 18:52:44 10° 151° (SSE) 2,294 5.3 -14.6°
Maximum altitude 18:57:40 57° 74° (ENE) 895 3.0 -15.6°
Drops below altitude 10° 19:02:39 10° 356° (N) 2,308 5.4 -16.6°
Sets 19:04:59 0° 353° (N) 3,237 6.2 -17.0°
